Location: Piotrkow Trybunalski
(51.4000°N, 19.6830°E)
Time: 13:27:38
(UTC+02:00)

A-11 Canister half - Pass Details

Date: 01 February 2023
Orbit: 1526 x 1682 km, 47.3° (Epoch: 26 March)

Event Time Altitude Azimuth Distance (km) Brightness Sun altitude
Rises 04:34:03 0° 191° (SSW) 4,666 11.4 -25.9°
Reaches altitude 10° 04:37:59 10° 177° (S) 3,684 11.0 -25.3°
Maximum altitude 04:44:27 22° 132° (SE) 2,884 10.9 -24.3°
Drops below altitude 10° 04:50:58 10° 87° (E) 3,724 12.1 -23.3°
Sets 04:54:56 0° 73° (ENE) 4,729 12.9 -22.6°
